This demonstration page uses our WeatherBlox Daily Observations layout. Learn more.

Left ArrowRight Arrow

30.00354, -91.81873

Hourly Observations for August 13, 2022

Temp ( °F °C ) Dew Point ( °F °C ) Humidity (%) Winds ( mph kmh ) Pressure ( in mb ) Visibility ( mi km ) Precip ( " mm )
12:53 am 00:53 Clear 76 24.4 73 22.8 91 91 Calm 29.96 1015 10 16 0.00 0.00
1:53 am 01:53 Clear 76 24.4 73 22.8 91 91 Calm 29.94 1014 10 16 0.00 0.00
2:00 am 02:00 Partly Cloudy 75 23.9 73 22.8 94 94 Calm 29.95 1014 10 16 0.00 0.00
2:09 am 02:09 Mostly Cloudy 76 24.4 74 23.3 94 94 ENE 3 6 29.95 1014 10 16 0.00 0.00
2:26 am 02:26 Cloudy with Mist and Fog 76 24.4 74 23.3 94 94 E 5 7 29.95 1014 2 3 0.00 0.00
2:35 am 02:35 Mostly Clear with Fog 76 24.4 74 23.3 94 94 E 5 7 29.95 1014 1 1 0.00 0.00
2:53 am 02:53 Mostly Clear with Fog 76 24.4 74 23.3 94 94 ENE 3 6 29.95 1014 1 1 0.00 0.00
3:38 am 03:38 Cloudy with Mist and Fog 76 24.4 74 23.3 94 94 ENE 5 7 29.96 1014 2 3 0.00 0.00
3:53 am 03:53 Cloudy with Mist and Fog 76 24.4 74 23.3 94 94 E 5 7 29.96 1015 1 2 0.00 0.00
4:05 am 04:05 Cloudy with Mist and Fog 76 24.4 74 23.3 94 94 E 6 9 29.96 1014 3 5 0.00 0.00
4:53 am 04:53 Cloudy 76 24.4 74 23.3 94 94 E 6 9 29.96 1015 9 14 0.00 0.00
5:53 am 05:53 Mostly Cloudy 75 23.9 74 23.3 96 96 E 3 6 29.96 1015 10 16 0.00 0.00
6:02 am 06:02 Partly Cloudy 75 23.9 74 23.3 96 96 ESE 5 7 29.97 1015 10 16 0.00 0.00
6:53 am 06:53 Sunny 75 23.9 73 22.8 94 94 ENE 5 7 29.98 1015 10 16 0.00 0.00
7:08 am 07:08 Mostly Sunny 76 24.4 74 23.3 94 94 ENE 6 9 29.99 1016 10 16 0.00 0.00
7:27 am 07:27 Mostly Cloudy 76 24.4 74 23.3 94 94 ENE 6 9 29.99 1016 8 13 0.00 0.00
7:53 am 07:53 Mostly Cloudy 77 25 74 23.3 90 90 E 3 6 29.98 1015 10 16 0.00 0.00
8:53 am 08:53 Mostly Cloudy 80 26.7 75 23.9 85 85 E 6 9 29.99 1016 10 16 0.00 0.00
9:13 am 09:13 Mostly Cloudy 82 27.8 75 23.9 79 79 E 8 13 30.00 1016 10 16 0.00 0.00
9:33 am 09:33 Mostly Cloudy 83 28.3 75 23.9 77 77 VRB 7 11 30.00 1016 10 16 0.00 0.00
9:53 am 09:53 Mostly Cloudy 82 27.8 74 23.3 77 77 SE 9 15 30.01 1016 10 16 0.00 0.00
10:16 am 10:16 Partly Cloudy 84 28.9 75 23.9 74 74 SE 9 15 30.01 1016 10 16 0.00 0.00
10:53 am 10:53 Mostly Cloudy 85 29.4 75 23.9 72 72 SSE 7 11 30.01 1016 10 16 0.00 0.00
11:36 am 11:36 Cloudy with Light Rain 83 28.3 76 24.4 79 79 SSE 6 9 30.02 1017 7 11 0.01 0.13
11:53 am 11:53 Cloudy 85 29.4 75 23.9 72 72 SSE 12 19 30.01 1016 10 16 0.01 0.13
12:09 pm 12:09 Cloudy 82 27.8 75 23.9 79 79 S 10 17 30.02 1017 10 16 0.00 0.00
12:19 pm 12:19 Cloudy with Light Rain 82 27.8 75 23.9 79 79 S 10 17 30.02 1017 10 16 0.01 0.13
12:53 pm 12:53 Cloudy 86 30 75 23.9 70 70 S 12 19 30.01 1016 10 16 0.01 0.13
1:53 pm 13:53 Cloudy with Light Rain 85 29.4 76 24.4 75 75 S 12 19 30.01 1016 8 13 0.01 0.13
2:53 pm 14:53 Mostly Cloudy 82 27.8 74 23.3 77 77 S 18 30 30.00 1016 10 16 0.01 0.13
3:53 pm 15:53 Mostly Cloudy 84 28.9 74 23.3 72 72 S 15 24 30.00 1016 10 16 0.01 0.13
4:53 pm 16:53 Mostly Cloudy 84 28.9 74 23.3 72 72 SSE 8 13 29.98 1015 10 16 0.00 0.00
5:53 pm 17:53 Sunny 83 28.3 73 22.8 72 72 S 8 13 29.98 1015 10 16 0.00 0.00
6:53 pm 18:53 Sunny 82 27.8 74 23.3 77 77 S 6 9 29.97 1015 10 16 0.00 0.00
7:53 pm 19:53 Clear 80 26.7 74 23.3 82 82 Calm 29.98 1015 10 16 0.00 0.00
8:53 pm 20:53 Clear 78 25.6 74 23.3 87 87 E 5 7 29.98 1015 10 16 0.00 0.00
9:53 pm 21:53 Clear 77 25 74 23.3 90 90 E 5 7 29.98 1015 10 16 0.00 0.00
10:53 pm 22:53 Clear 77 25 74 23.3 90 90 E 5 7 29.98 1015 10 16 0.00 0.00
11:53 pm 23:53 Clear 76 24.4 73 22.8 91 91 ESE 6 9 29.98 1015 10 16 0.00 0.00

Powered by AerisWeather